Powrót do katalogu

STARLINK-11465

AktywnyŁącznośćVLEO
NORAD 62057·PAYLOAD·🇺🇸 United States

Wystrzelony Nov 24, 2024 z Vandenberg Space Force Base

Loading…

Następne Przeloty (najbliższe 24 godziny)

TLE

ŚwieżeSource: CelesTrak SupGP

Epoka: Sep 14, 2026, 15:22 UTC

1 62057C 24217A   26257.64076389 -.00024782  00000+0 -20420-3 0  2573
2 62057  53.1576 219.5885 0001135  96.9791 250.2424 15.69714884    11

Śledź STARLINK-11465 w czasie rzeczywistym z AllMySat

Download on the App Store